Location: Bishausen
(51.6334°N, 9.9631°E)
Time: 16:17:43
(UTC+00:00)

ATLAS 2AS CENTAUR R/B - Pass Details

Date: 23 May 2024
Orbit: 1018 x 1193 km, 63.7° (Epoch: 24 June)

Event Time Altitude Azimuth Distance (km) Brightness Sun altitude
Rises 01:30:28 0° 313° (NW) 3,927 5.8 -12.0°
Reaches altitude 10° 01:33:13 10° 316° (NW) 2,941 5.2 -11.8°
Maximum altitude 01:40:09 71° 41° (NE) 1,115 3.0 -11.2°
Drops below altitude 10° 01:46:48 10° 125° (SE) 2,825 4.9 -10.6°
Sets 01:49:23 0° 128° (SE) 3,762 5.6 -10.4°
